Fort Meade, MD

11:33 AM EDT on June 22, 2017 (GMT -0400)
Tipton

Weather History for KFME - June, 2012

Change the Weather History Date:

Monday, June 11, 2012

  Actual Average (KBWI) Record (KBWI)
Temperature  
Mean Temperature 73 °F -  
Max Temperature 86 °F 82 °F 99 °F (1911)
Min Temperature 60 °F 60 °F 40 °F (1972)
Cooling Degree Days 8    
Growing Degree Days 23 (Base 50)    
Moisture  
Dew Point 61 °F    
Average Humidity 66    
Maximum Humidity 100    
Minimum Humidity 43    
Precipitation  
Precipitation 0.00 in - - ()
Sea Level Pressure  
Sea Level Pressure 30.12 in    
Wind  
Wind Speed 2 mph (SSE)    
Max Wind Speed 10 mph    
Max Gust Speed -    
Visibility 8 miles    
Events      
Averages and records for this station are not official NWS values.
T = Trace of Precipitation, MM = Missing Value Source: NWS Daily Summary

Daily Weather History Graph

Daily Weather History Graph

Search for Another Location

Airport or City:

Trip Planner

Search our weather history database for the weather conditions in past years. The results will help you decide how hot, cold, wet, or windy it might be!

Date:

Astronomy

Jun. 11, 2012 Rise Set
Actual Time 5:40 AM EDT 8:33 PM EDT
Civil Twilight 5:08 AM EDT 9:05 PM EDT
Nautical Twilight 4:28 AM EDT 9:45 PM EDT
Astronomical Twilight 3:41 AM EDT 10:32 PM EDT
Moon 12:55 AM EDT (6/11) 1:24 PM EDT (6/11)
Length of Visible Light 15h 56m
Length of Day
14h 52m
Waning Gibbous, 48% of the Moon is Illuminated
Jun 11
Waning Gibbous
Jun 19
New
Jun 26
First Quarter
Jul 3
Full
Jul 10
Last Quarter

Hourly Weather History & Observations

Time (EDT) Temp. Heat Index Dew Point Humidity Pressure Visibility Wind Dir Wind Speed Gust Speed Precip Events Conditions
12:00 AM 64.4 °F - 62.6 °F 94% 30.13 in 7.0 mi Calm Calm - N/A   Clear
12:21 AM 64.4 °F - 62.6 °F 94% 30.13 in 7.0 mi Calm Calm - N/A   Clear
12:42 AM 64.4 °F - 62.6 °F 94% 30.13 in 7.0 mi Calm Calm - N/A   Clear
1:06 AM 62.6 °F - 60.8 °F 94% 30.12 in 5.0 mi Calm Calm - N/A   Clear
1:48 AM 62.6 °F - 60.8 °F 94% 30.12 in 5.0 mi Calm Calm - N/A   Clear
2:09 AM 62.6 °F - 60.8 °F 94% 30.11 in 5.0 mi Calm Calm - N/A   Clear
2:30 AM 62.6 °F - 60.8 °F 94% 30.11 in 5.0 mi Calm Calm - N/A   Clear
2:51 AM 62.6 °F - 60.8 °F 94% 30.11 in 5.0 mi Calm Calm - N/A   Clear
3:12 AM 60.8 °F - 60.8 °F 100% 30.11 in 4.0 mi Calm Calm - N/A   Clear
3:33 AM 60.8 °F - 59.0 °F 94% 30.11 in 4.0 mi Calm Calm - N/A   Clear
4:39 AM 60.8 °F - 59.0 °F 94% 30.11 in 4.0 mi Calm Calm - N/A   Clear
5:00 AM 60.8 °F - 59.0 °F 94% 30.11 in 4.0 mi Calm Calm - N/A   Clear
5:21 AM 60.8 °F - 59.0 °F 94% 30.12 in 4.0 mi Calm Calm - N/A   Clear
5:42 AM 60.8 °F - 59.0 °F 94% 30.13 in 3.0 mi Calm Calm - N/A   Clear
6:03 AM 60.8 °F - 59.0 °F 94% 30.14 in 3.0 mi Calm Calm - N/A   Clear
6:24 AM 60.8 °F - 59.0 °F 94% 30.14 in 4.0 mi Calm Calm - N/A   Clear
6:45 AM 62.6 °F - 60.8 °F 94% 30.14 in 5.0 mi Calm Calm - N/A   Clear
7:48 AM 69.8 °F - 64.4 °F 83% 30.16 in 10.0 mi Calm Calm - N/A   Clear
8:09 AM 71.6 °F - 64.4 °F 78% 30.16 in 10.0 mi Calm Calm - N/A   Clear
8:33 AM 75.2 °F - 66.2 °F 73% 30.16 in 10.0 mi Calm Calm - N/A   Clear
8:54 AM 77.0 °F - 64.4 °F 65% 30.16 in 10.0 mi Calm Calm - N/A   Clear
9:15 AM 78.8 °F - 64.4 °F 61% 30.16 in 10.0 mi Calm Calm - N/A   Clear
9:36 AM 78.8 °F - 64.4 °F 61% 30.16 in 10.0 mi Calm Calm - N/A   Clear
9:57 AM 80.6 °F 81.8 °F 62.6 °F 54% 30.16 in 10.0 mi Calm Calm - N/A   Clear
10:18 AM 82.4 °F 83.9 °F 64.4 °F 54% 30.16 in 10.0 mi South 3.5 mph - N/A   Clear
10:39 AM 82.4 °F 83.4 °F 62.6 °F 51% 30.16 in 10.0 mi SSE 4.6 mph - N/A   Clear
11:00 AM 82.4 °F 83.4 °F 62.6 °F 51% 30.16 in 10.0 mi South 3.5 mph - N/A   Scattered Clouds
11:21 AM 84.2 °F 85.0 °F 62.6 °F 48% 30.16 in 10.0 mi SSE 3.5 mph - N/A   Scattered Clouds
11:42 AM 84.2 °F 84.4 °F 60.8 °F 45% 30.16 in 10.0 mi SSE 8.1 mph - N/A   Clear
12:03 PM 84.2 °F 85.0 °F 62.6 °F 48% 30.16 in 10.0 mi SSW 5.8 mph - N/A   Clear
12:24 PM 86.0 °F 86.1 °F 60.8 °F 43% 30.16 in 10.0 mi SSE 6.9 mph - N/A   Clear
1:09 PM 86.0 °F 86.1 °F 60.8 °F 43% 30.15 in 10.0 mi SSE 9.2 mph - N/A   Clear
1:30 PM 86.0 °F 86.1 °F 60.8 °F 43% 30.14 in 10.0 mi SSE 4.6 mph - N/A   Scattered Clouds
1:51 PM 84.2 °F 84.4 °F 60.8 °F 45% 30.14 in 10.0 mi SE 8.1 mph - N/A   Scattered Clouds
2:12 PM 86.0 °F 86.1 °F 60.8 °F 43% 30.13 in 10.0 mi SSE 10.4 mph - N/A   Scattered Clouds
2:33 PM 84.2 °F 85.0 °F 62.6 °F 48% 30.12 in 10.0 mi SE 6.9 mph - N/A   Scattered Clouds
2:54 PM 84.2 °F 85.0 °F 62.6 °F 48% 30.12 in 10.0 mi SE 10.4 mph - N/A   Mostly Cloudy
3:15 PM 84.2 °F 85.0 °F 62.6 °F 48% 30.11 in 10.0 mi SSE 9.2 mph - N/A   Scattered Clouds
3:36 PM 84.2 °F 85.0 °F 62.6 °F 48% 30.11 in 10.0 mi SSE 8.1 mph - N/A   Scattered Clouds
3:57 PM 82.4 °F 83.4 °F 62.6 °F 51% 30.11 in 10.0 mi SE 6.9 mph - N/A   Clear
4:18 PM 82.4 °F 83.4 °F 62.6 °F 51% 30.11 in 10.0 mi SE 5.8 mph - N/A   Clear
4:39 PM 80.6 °F 81.8 °F 62.6 °F 54% 30.10 in 10.0 mi SSE 6.9 mph - N/A   Clear
5:03 PM 80.6 °F 81.5 °F 60.8 °F 51% 30.09 in 10.0 mi SE 8.1 mph - N/A   Clear
5:24 PM 80.6 °F 81.8 °F 62.6 °F 54% 30.09 in 10.0 mi SE 5.8 mph - N/A   Clear
5:45 PM 80.6 °F 81.8 °F 62.6 °F 54% 30.09 in 10.0 mi SSE 6.9 mph - N/A   Clear
6:06 PM 80.6 °F 81.8 °F 62.6 °F 54% 30.09 in 10.0 mi SSE 4.6 mph - N/A   Clear
6:48 PM 80.6 °F 81.8 °F 62.6 °F 54% 30.09 in 10.0 mi SSE 4.6 mph - N/A   Clear
7:09 PM 78.8 °F - 62.6 °F 57% 30.10 in 10.0 mi SSE 4.6 mph - N/A   Clear
7:30 PM 78.8 °F - 62.6 °F 57% 30.10 in 10.0 mi SSE 5.8 mph - N/A   Clear
7:51 PM 78.8 °F - 60.8 °F 54% 30.10 in 10.0 mi SSE 6.9 mph - N/A   Clear
8:12 PM 78.8 °F - 57.2 °F 47% 30.09 in 10.0 mi SSE 6.9 mph - N/A   Clear
8:33 PM 77.0 °F - 59.0 °F 54% 30.09 in 10.0 mi SSE 5.8 mph - N/A   Clear
8:57 PM 77.0 °F - 57.2 °F 50% 30.09 in 10.0 mi SE 4.6 mph - N/A   Clear
9:18 PM 75.2 °F - 57.2 °F 53% 30.10 in 10.0 mi SE 5.8 mph - N/A   Clear
9:39 PM 73.4 °F - 59.0 °F 61% 30.11 in 10.0 mi South 3.5 mph - N/A   Clear
10:00 PM 71.6 °F - 59.0 °F 64% 30.11 in 10.0 mi Calm Calm - N/A   Clear
10:21 PM 71.6 °F - 59.0 °F 64% 30.11 in 10.0 mi SE 3.5 mph - N/A   Clear
10:42 PM 73.4 °F - 59.0 °F 61% 30.11 in 10.0 mi SE 5.8 mph - N/A   Clear
11:03 PM 73.4 °F - 59.0 °F 61% 30.11 in 10.0 mi SSE 4.6 mph - N/A   Clear